Location: ??
(34.9170°N, 135.5016°E)
Time: 12:36:54
(UTC+00:00)

S-56A Canister/Altair - Visible Passes

Search period start: 07 March 2021 00:00
Search period end: 17 March 2021 00:00
Orbit: 631 x 2501 km, 38.9° (Epoch: 06 March)

Date Brightness Start Highest point End Pass type
(mag) Time Alt. Az. Time Alt. Az. Time Alt. Az.
07 Mar 10.4 10:08:11 10° WNW 10:22:03 49° SW 10:32:46 10° SSE visible
07 Mar 11.2 12:20:22 10° W 12:25:23 13° WSW 12:29:52 10° SSW visible
08 Mar 10.4 09:34:20 10° WNW 09:48:46 55° SW 10:00:13 10° SE visible
08 Mar 11.1 11:44:56 10° W 11:52:33 17° SW 11:59:04 10° SSW visible
09 Mar 10.4 09:00:34 10° WNW 09:15:23 61° SW 09:27:33 10° SE visible
09 Mar 11.1 11:10:09 10° W 11:19:37 22° SW 11:27:35 10° S visible
10 Mar 11.1 10:35:41 10° W 10:46:36 26° SW 10:55:45 10° S visible
11 Mar 11.2 10:01:28 10° WNW 10:13:30 31° SW 10:23:41 10° S visible
12 Mar 11.2 09:27:26 10° WNW 09:40:18 36° SW 09:51:24 10° SSE visible
14 Mar 11.8 10:32:30 10° WSW 10:37:45 13° SW 10:42:44 10° SSW visible
15 Mar 11.7 09:56:55 10° W 10:04:42 16° SW 10:11:58 10° SSW visible
16 Mar 11.7 09:22:08 10° W 09:31:34 20° SW 09:40:25 10° SSW visible
